Tacoma, WA

2:56 PM PDT on April 27, 2017 (GMT -0700)
McChord Air Force Base

Weather History for KTCM - November, 2012

Change the Weather History Date:

Wednesday, November 7, 2012

  Actual Average Record
Temperature  
Mean Temperature 44 °F -  
Max Temperature 53 °F 52 °F 63 °F (2008)
Min Temperature 32 °F 35 °F 23 °F (2003)
Degree Days  
Heating Degree Days 20    
Moisture  
Dew Point 40 °F    
Average Humidity 85    
Maximum Humidity 99    
Minimum Humidity 56    
Precipitation  
Precipitation 0.00 in - - ()
Sea Level Pressure  
Sea Level Pressure 30.10 in    
Wind  
Wind Speed 8 mph (South)    
Max Wind Speed 12 mph    
Max Gust Speed -    
Visibility 10 miles    
Events      
Averages and records for this station are not official NWS values.
T = Trace of Precipitation, MM = Missing Value Source: NWS Daily Summary

Daily Weather History Graph

Daily Weather History Graph

Search for Another Location

Airport or City:

Trip Planner

Search our weather history database for the weather conditions in past years. The results will help you decide how hot, cold, wet, or windy it might be!

Date:

Astronomy

Nov. 07, 2012 Rise Set
Actual Time 7:02 AM PST 4:43 PM PST
Civil Twilight 6:30 AM PST 5:16 PM PST
Nautical Twilight 5:53 AM PST 5:52 PM PST
Astronomical Twilight 5:17 AM PST 6:28 PM PST
Moon No Moon Rise 1:19 PM PST (11/7)
Length of Visible Light 10h 46m
Length of Day
9h 41m
Last Quarter, 42% of the Moon is Illuminated
Nov 7
Last Quarter
Nov 13
New
Nov 20
First Quarter
Nov 28
Full
Dec 6
Last Quarter

Hourly Weather History & Observations

Time (PST) Temp. Windchill Dew Point Humidity Pressure Visibility Wind Dir Wind Speed Gust Speed Precip Events Conditions
12:58 AM 45.1 °F 40.8 °F 45.0 °F 99% 30.09 in 10.0 mi SSW 8.1 mph - N/A   Clear
1:58 AM 43.2 °F 38.4 °F 42.8 °F 99% 30.10 in 10.0 mi South 8.1 mph - N/A   Clear
2:58 AM 42.8 °F 37.0 °F 42.4 °F 99% 30.12 in 10.0 mi South 10.4 mph - N/A   Clear
3:58 AM 42.6 °F 36.3 °F 42.4 °F 99% 30.12 in 10.0 mi South 11.5 mph - N/A   Clear
4:58 AM 43.0 °F 37.2 °F 42.8 °F 99% 30.13 in 10.0 mi South 10.4 mph - N/A   Clear
5:58 AM 42.1 °F 37.7 °F 41.7 °F 99% 30.15 in 10.0 mi SSE 6.9 mph - N/A   Mostly Cloudy
6:58 AM 41.5 °F 35.4 °F 41.0 °F 98% 30.15 in 10.0 mi South 10.4 mph - N/A   Clear
7:58 AM 43.9 °F 39.3 °F 43.2 °F 97% 30.16 in 10.0 mi South 8.1 mph - N/A   Mostly Cloudy
8:58 AM 46.6 °F - 42.1 °F 84% 30.16 in 10.0 mi South 9.2 mph - N/A   Clear
9:58 AM 49.1 °F - 41.9 °F 76% 30.16 in 10.0 mi South 10.4 mph - N/A   Clear
10:58 AM 51.6 °F - 41.2 °F 68% 30.16 in 10.0 mi SSW 11.5 mph - N/A   Clear
11:58 AM 53.2 °F - 39.7 °F 60% 30.15 in 10.0 mi SSW 10.4 mph - N/A   Partly Cloudy
12:58 PM 53.2 °F - 37.8 °F 56% 30.14 in 10.0 mi WSW 5.8 mph - N/A   Partly Cloudy
1:58 PM 51.3 °F - 37.4 °F 59% 30.13 in 10.0 mi WSW 8.1 mph - N/A   Clear
2:58 PM 52.3 °F - 37.9 °F 58% 30.11 in 10.0 mi SSW 8.1 mph - N/A   Clear
3:58 PM 50.4 °F - 38.5 °F 64% 30.10 in 10.0 mi South 4.6 mph - N/A   Clear
4:58 PM 48.6 °F - 39.9 °F 72% 30.08 in 10.0 mi SW 2.3 mph - N/A   Mostly Cloudy
5:58 PM 42.4 °F 39.6 °F 39.6 °F 90% 30.07 in 10.0 mi South 4.6 mph - N/A   Clear
6:58 PM 40.6 °F - 37.9 °F 90% 30.06 in 10.0 mi East 2.3 mph - N/A   Clear
7:58 PM 38.1 °F - 37.9 °F 99% 30.05 in 10.0 mi ESE 2.3 mph - N/A   Mostly Cloudy
8:58 PM 39.6 °F - 38.5 °F 96% 30.03 in 10.0 mi East 1.2 mph - N/A   Overcast
9:58 PM 39.9 °F - 37.8 °F 92% 30.02 in 10.0 mi Calm Calm - N/A   Partly Cloudy
10:58 PM 36.9 °F - 36.3 °F 98% 29.98 in 10.0 mi East 2.3 mph - N/A   Clear
11:58 PM 32.2 °F - 31.6 °F 98% 29.96 in 10.0 mi Calm Calm - N/A   Clear